Location: Ward Pound Ridge Reservation
(41.2500°N, 73.6000°W)
Time: 14:49:07
(UTC-05:00)

Vanguard 2 Rocket - Visible Passes

Search period start: 17 February 2018 00:00
Search period end: 27 February 2018 00:00
Orbit: 555 x 3327 km, 32.9° (Epoch: 17 February)

Date Brightness Start Highest point End Pass type
(mag) Time Alt. Az. Time Alt. Az. Time Alt. Az.
17 Feb 10.2 01:05:39 37° ESE 01:05:39 37° ESE 01:15:32 10° E visible
17 Feb 9.4 03:11:26 61° SW 03:13:34 64° S 03:32:00 10° ESE visible
17 Feb 9.9 05:17:14 20° W 05:30:27 42° SSW 05:45:10 10° SSE visible
18 Feb 10.7 00:09:21 20° E 00:09:21 20° E 00:13:36 10° E visible
18 Feb 9.6 02:15:09 60° SE 02:15:09 60° SE 02:31:10 10° ESE visible
18 Feb 9.7 04:20:57 37° WSW 04:29:12 51° SSW 04:45:51 10° SE visible
19 Feb 10.1 01:18:55 40° ESE 01:18:55 40° ESE 01:29:46 10° E visible
19 Feb 9.5 03:24:43 55° SW 03:27:33 58° SSW 03:45:51 10° SE visible
19 Feb 10.1 05:30:31 16° W 05:43:50 34° SW 05:57:56 10° SSE visible
20 Feb 10.6 00:22:45 22° E 00:22:45 22° E 00:27:53 10° E visible
20 Feb 9.6 02:28:33 59° SSE 02:28:33 59° SSE 02:45:11 10° ESE visible
20 Feb 9.9 04:34:21 31° WSW 04:42:49 43° SSW 04:59:02 10° SSE visible
20 Feb 9.8 20:44:23 10° SSW 20:45:27 14° S 20:45:27 14° S visible
21 Feb 10.0 01:32:27 42° ESE 01:32:27 42° ESE 01:43:54 10° ESE visible
21 Feb 9.6 03:38:15 48° SW 03:41:23 51° SSW 03:59:21 10° SE visible
21 Feb 10.3 05:44:04 12° W 05:57:05 25° SW 06:09:48 10° S visible
21 Feb 9.6 19:47:36 10° SSE 19:49:43 14° SSE 19:49:43 14° SSE visible
22 Feb 10.5 00:36:24 24° ESE 00:36:24 24° ESE 00:42:05 10° ESE visible
22 Feb 9.6 02:42:13 55° S 02:42:13 55° S 02:58:56 10° SE visible
22 Feb 10.0 04:48:02 26° WSW 04:56:17 34° SW 05:11:36 10° SSE visible
22 Feb 9.5 20:57:32 10° SSW 20:59:50 19° SSW 20:59:50 19° SSW visible
23 Feb 10.0 01:46:15 41° SE 01:46:15 41° SE 01:57:50 10° ESE visible
23 Feb 9.7 03:52:04 40° SW 03:55:05 42° SSW 04:12:23 10° SSE visible
23 Feb 10.5 05:59:46 10° W 06:10:15 17° SW 06:20:04 10° SSW visible
23 Feb 9.2 19:59:54 10° S 20:04:04 22° SSE 20:04:04 22° SSE visible
23 Feb 10.1 22:09:46 10° SW 22:09:55 11° SW 22:09:55 11° SW visible
24 Feb 10.5 00:50:20 24° ESE 00:50:20 24° ESE 00:56:09 10° ESE visible
24 Feb 9.7 02:56:10 47° S 02:56:10 47° S 03:12:18 10° SE visible
24 Feb 10.2 05:02:00 20° WSW 05:09:38 25° SW 05:23:14 10° S visible
24 Feb 9.4 19:03:33 10° SSE 19:07:50 15° SE 19:08:18 15° SE visible
24 Feb 9.3 21:11:11 10° SW 21:14:08 24° SSW 21:14:08 24° SSW visible
25 Feb 10.0 02:00:20 38° SE 02:00:20 38° SE 02:11:29 10° SE visible
25 Feb 9.9 04:06:10 32° SW 04:08:39 33° SW 04:24:43 10° SSE visible
25 Feb 8.8 20:13:05 10° SSW 20:18:21 31° SSE 20:18:21 31° SSE visible
25 Feb 10.1 22:23:56 10° WSW 22:24:11 11° WSW 22:24:11 11° WSW visible
26 Feb 10.5 01:04:32 23° ESE 01:04:32 23° ESE 01:10:01 10° ESE visible
26 Feb 9.9 03:10:23 39° SSW 03:10:23 39° SSW 03:25:08 10° SSE visible
26 Feb 10.4 05:16:14 13° WSW 05:22:59 17° SW 05:33:06 10° SSW visible
26 Feb 9.0 19:15:40 10° S 19:21:12 22° SE 19:22:31 21° SE visible
26 Feb 9.2 21:25:11 10° SW 21:28:21 27° SW 21:28:21 27° SW visible
